Location: Sternwarte_Laufen
(47.9344°N, 12.9346°E)
Time: 08:04:55
(UTC+02:00)

Explorer 7 - Visible Passes

Search period start: 08 June 2026 00:00
Search period end: 18 June 2026 00:00
Orbit: 426 x 534 km, 50.2° (Epoch: 7 June)

Date Brightness Start Highest point End Pass type
(mag) Time Alt. Az. Time Alt. Az. Time Alt. Az.
8 Jun 6.6 00:36:21 10° WNW 00:39:44 65° N 00:42:29 15° E visible
8 Jun 7.5 02:14:39 10° WNW 02:16:34 28° W 02:16:34 28° W visible
8 Jun 6.7 22:29:42 10° W 22:33:07 65° N 22:36:31 10° ENE visible
9 Jun 6.7 00:08:10 10° WNW 00:11:34 64° N 00:14:13 16° E visible
9 Jun 7.6 01:46:28 10° WNW 01:48:21 28° W 01:48:21 28° W visible
9 Jun 6.7 22:01:29 10° W 22:04:55 67° NNW 22:08:19 10° ENE visible
9 Jun 6.7 23:39:58 10° WNW 23:43:22 62° N 23:46:20 13° E visible
10 Jun 7.3 01:18:16 10° WNW 01:20:29 34° W 01:20:29 34° W visible
10 Jun 6.8 23:11:45 10° WNW 23:15:08 60° N 23:18:32 10° E visible
11 Jun 6.8 00:50:03 10° WNW 00:52:45 44° WSW 00:52:45 44° WSW visible
11 Jun 6.8 22:43:30 10° WNW 22:46:54 59° N 22:50:16 10° E visible
12 Jun 6.3 00:21:48 10° WNW 00:25:05 56° SSW 00:25:05 56° SSW visible
12 Jun 6.9 22:15:13 10° WNW 22:18:37 58° N 22:22:00 10° E visible
12 Jun 6.3 23:53:31 10° WNW 23:56:54 60° SSW 23:57:28 50° SSE visible
13 Jun 6.9 21:46:55 10° WNW 21:50:19 57° N 21:53:42 10° E visible
13 Jun 6.3 23:25:14 10° WNW 23:28:37 64° SSW 23:29:52 34° SE visible
14 Jun 6.2 22:56:54 10° WNW 23:00:20 69° SSW 23:02:19 23° SE visible
15 Jun 8.8 00:35:57 10° W 00:36:28 12° WSW 00:36:28 12° WSW visible
15 Jun 6.3 22:28:34 10° WNW 22:32:00 73° SSW 22:34:46 15° ESE visible
16 Jun 8.4 00:07:30 10° W 00:08:56 16° WSW 00:08:56 16° WSW visible
16 Jun 6.3 22:00:12 10° WNW 22:03:39 78° SSW 22:07:03 10° ESE visible
16 Jun 8.1 23:39:02 10° W 23:41:24 18° SW 23:41:24 18° SW visible
17 Jun 8.0 23:10:34 10° W 23:13:07 20° SW 23:13:54 18° SSW visible
